Location: Melbourne
(37.8170°S, 144.9670°E)
Time: 00:21:36
(UTC+10:00)

ISS - All Passes

Search period start: 03 August 2015 00:00
Search period end: 13 August 2015 00:00
Orbit: 401 x 403 km, 51.6° (Epoch: 02 August)

Date Brightness Start Highest point End Pass type
(mag) Time Alt. Az. Time Alt. Az. Time Alt. Az.
03 Aug - 07:22:07 10° NNW 07:25:00 29° NE 07:27:57 10° ESE daylight
03 Aug - 08:58:29 10° W 09:01:26 28° SSW 09:04:23 10° SSE daylight
03 Aug - 13:51:14 10° SSW 13:53:57 23° SSE 13:56:41 10° E daylight
03 Aug - 15:27:22 10° WSW 15:30:31 41° NW 15:33:37 10° NNE daylight
04 Aug - 06:30:20 10° NNE 06:32:09 14° NE 06:34:05 10° E visible
04 Aug - 08:05:04 10° WNW 08:08:18 51° SW 08:11:35 10° SE daylight
04 Aug - 09:43:58 10° SW 09:45:23 12° SSW 09:46:47 10° S daylight
04 Aug - 12:58:37 10° SSW 13:00:42 16° SSE 13:02:49 10° ESE daylight
04 Aug - 14:34:13 10° SW 14:37:33 89° NNW 14:40:51 10° NE daylight
05 Aug - 07:11:59 10° NW 07:15:16 77° NE 07:18:36 10° SE daylight
05 Aug - 08:49:48 10° WSW 08:52:04 17° SSW 08:54:18 10° SSE daylight
05 Aug - 12:06:12 10° S 12:07:21 11° SSE 12:08:33 10° SE daylight
05 Aug - 13:41:16 10° SW 13:44:29 45° SE 13:47:41 10° ENE daylight
05 Aug - 15:18:28 10° W 15:20:42 17° NW 15:22:50 10° N daylight
06 Aug - 06:19:17 10° NNW 06:22:18 35° NE 06:25:24 10° ESE visible
06 Aug - 07:55:58 10° W 07:58:48 25° SSW 08:01:38 10° SSE daylight
06 Aug - 12:48:28 10° SSW 12:51:19 26° SSE 12:54:11 10° E daylight
06 Aug - 14:24:45 10° WSW 14:27:48 33° NW 14:30:48 10° NNE daylight
07 Aug - 05:27:11 10° N 05:29:24 17° NE 05:31:43 10° E visible
07 Aug - 07:02:27 10° WNW 07:05:38 43° SW 07:08:50 10° SE daylight
07 Aug - 08:41:40 10° SW 08:42:46 11° SSW 08:43:51 10° S daylight
07 Aug - 11:55:47 10° SSW 11:58:03 17° SSE 12:00:22 10° ESE daylight
07 Aug - 13:31:31 10° SW 13:34:50 73° NW 13:38:07 10° NE daylight
08 Aug - 06:09:14 10° NW 06:12:32 87° SW 06:15:52 10° SE visible
08 Aug - 07:47:20 10° WSW 07:49:24 15° SSW 07:51:26 10° SSE daylight
08 Aug - 11:03:15 10° S 11:04:42 12° SSE 11:06:12 10° SE daylight
08 Aug - 12:38:29 10° SW 12:41:46 53° SE 12:45:01 10° ENE daylight
08 Aug - 14:16:06 10° W 14:17:55 14° NW 14:19:36 10° NNW daylight
09 Aug - 05:16:23 10° NNW 05:19:31 43° NE 05:22:42 10° ESE visible
09 Aug - 06:53:24 10° W 06:56:06 22° SSW 06:58:48 10° SSE daylight
09 Aug - 11:45:38 10° SSW 11:48:36 29° SSE 11:51:34 10° E daylight
09 Aug - 13:22:06 10° WSW 13:25:00 27° NW 13:27:50 10° NNE daylight
10 Aug - 04:24:03 10° N 04:26:34 21° NE 04:29:10 10° E visible
10 Aug - 05:59:45 10° WNW 06:02:52 36° SSW 06:06:00 10° SE visible
10 Aug - 07:39:22 10° SSW 07:40:05 10° SSW 07:40:44 10° S daylight
10 Aug - 10:52:52 10° SSW 10:55:19 19° SSE 10:57:48 10° ESE daylight
10 Aug - 12:28:44 10° WSW 12:32:01 59° NW 12:35:16 10° NE daylight
11 Aug - 03:33:26 10° NE 03:33:40 10° NE 03:34:04 10° ENE night (unlit)
11 Aug - 05:06:25 10° NW 05:09:42 72° SW 05:13:02 10° SE visible
11 Aug - 06:44:48 10° SW 06:46:40 14° SSW 06:48:29 10° SSE visible
11 Aug - 10:00:16 10° S 10:01:57 13° SSE 10:03:42 10° SE daylight
11 Aug - 11:35:38 10° SW 11:38:57 65° SE 11:42:14 10° ENE daylight
11 Aug - 13:13:51 10° WNW 13:15:02 11° NW 13:16:03 10° NNW daylight
12 Aug - 04:13:26 10° NW 04:16:39 53° NE 04:19:54 10° ESE visible
12 Aug - 05:50:44 10° WSW 05:53:18 20° SSW 05:55:50 10° SSE visible
12 Aug - 09:08:16 10° S 09:08:31 10° SSE 09:08:49 10° SSE daylight
12 Aug - 10:42:42 10° SW 10:45:46 34° SSE 10:48:50 10° E daylight
12 Aug - 12:19:23 10° WSW 12:22:06 23° NW 12:24:45 10° N daylight
